Home > Weather > Zwickau > Past weeks

Flag for Germany Past Weather in Zwickau, Saxony, Germany — Yesterday and Last 2 Weeks

Now
54 °F

Fog.


Feels Like: 54 °F
Forecast: 57 / 70 °F
Wind: 2 mph from East

Location: Karlovy Vary Airport

Current Time: Jun 1, 2016 at 12:02:09 AM

Latest Report: May 31, 2016 at 11:00 PM


Visibility: N/A

Pressure: 29.89 "Hg

Humidity: 100%

Dew Point: 54 °F

Location of ZwickauLocation

Past Weather in Zwickau — Graph

°F

Zwickau Temperature Yesterday

Maximum temperature yesterday: 70 °F (at 3:30 PM)
Minimum temperature yesterday: 50 °F (at 3:00 AM)
Average temperature yesterday: 60 °F

High & Low Weather Summary for the Past Weeks

 TemperatureHumidityPressure
High81 °F (May 22, 4:00 PM)100% (May 24, 1:00 AM)30.12 "Hg (May 24, 1:00 AM)
Low39 °F (May 17, 6:00 AM)24% (May 22, 4:30 PM)29.62 "Hg (May 30, 3:00 AM)
Average58 °F69%29.92 "Hg
* Reported May 16 11:00 PM — May 31 11:00 PM, Zwickau, Weather by CustomWeather, © 2016

Note: Actual official high and low records may vary slightly from our data, if they occured in-between our weather recording intervals... More about our weather records

Advertising

Zwickau Weather History for the Previous 24 Hours

Scroll right to see more
 ConditionsComfort  
Time TempWeatherWind HumidityBarometerVisibility
11:00 PM
Tue, May 31
54 °FFog.2 mph100%29.89 "HgN/A
10:00 PM55 °FSunny.2 mph94%29.89 "Hg10 mi
9:00 PM57 °FPassing clouds.1 mph94%29.89 "HgN/A
8:30 PM57 °FSunny.1 mph94%29.89 "Hg10 mi
8:00 PM57 °FSunny.2 mph94%29.89 "Hg10 mi
7:30 PM57 °FPassing clouds.3 mph94%29.89 "HgN/A
7:00 PM57 °FPassing clouds.2 mph94%29.89 "HgN/A
6:30 PM55 °FThundershowers. Partly sunny.7 mph94%29.89 "HgN/A
6:00 PM57 °FThundershowers. Partly sunny.6 mph94%29.89 "HgN/A
5:30 PM63 °FThundershowers. Scattered clouds.7 mph73%29.86 "Hg4 mi
5:00 PM68 °FThundershowers. Scattered clouds.9 mph53%29.86 "HgN/A
4:30 PM70 °FPassing clouds.12 mph53%29.86 "HgN/A
4:00 PM68 °FScattered clouds.12 mph56%29.86 "HgN/A
3:30 PM70 °FScattered clouds.9 mph50%29.86 "HgN/A
3:00 PM68 °FScattered clouds.8 mph56%29.86 "HgN/A
2:30 PM68 °FScattered clouds.10 mph56%29.86 "HgN/A
2:00 PM64 °FScattered clouds.7 mph64%29.86 "HgN/A
1:30 PM66 °FPassing clouds.6 mph64%29.86 "HgN/A
1:00 PM64 °FPassing clouds.5 mph68%29.89 "HgN/A
12:30 PM64 °FPassing clouds.5 mph68%29.89 "HgN/A
12:00 PM63 °FSprinkles. Scattered clouds.5 mph73%29.89 "HgN/A
11:30 AM63 °FSprinkles. Passing clouds.2 mph64%29.86 "HgN/A
11:00 AM64 °FScattered clouds.3 mph64%29.86 "HgN/A
10:30 AM63 °FScattered clouds.2 mph68%29.86 "HgN/A
10:00 AM61 °FScattered clouds.3 mph68%29.86 "HgN/A
9:30 AM61 °FScattered clouds.2 mph68%29.86 "HgN/A
9:00 AM61 °FPassing clouds.1 mph72%29.86 "HgN/A
8:30 AM59 °FSunny.5 mph72%29.86 "Hg10 mi
8:00 AM59 °FPassing clouds.7 mph77%29.86 "HgN/A
7:30 AM57 °FSunny.5 mph88%29.86 "Hg10 mi
7:00 AM57 °FPassing clouds.3 mph88%29.83 "HgN/A
6:00 AM50 °FFog.1 mph94%29.83 "HgN/A
5:00 AM50 °FClear.2 mph94%29.83 "Hg10 mi
4:00 AM52 °FClear.No wind94%29.83 "Hg10 mi
3:00 AM50 °FClear.No wind100%29.83 "Hg10 mi
2:00 AM52 °FClear.3 mph94%29.83 "Hg10 mi
1:00 AM52 °FClear.No wind94%29.80 "Hg10 mi
12:00 AM52 °FClear.3 mph94%29.83 "Hg10 mi
Weather by CustomWeather, © 2016

See weather overviewHow to use our weather pages